FW3830 Weather Reports


time (UTC)temp
F
wind
direction
speed
knots
gust
knots
rain 1hr
in
rain 24hr
in
rain mn
in
humidity
%
barometer
mb
20260504204541 72 293 3.5 7.0 0.00 0.00 0.00 36 1013.0
20260504203541 71 293 4.3 8.7 0.00 0.00 0.00 39 1012.9
20260504202541 70 270 4.3 10.4 0.00 0.00 0.00 41 1012.9
20260504201541 69 293 4.3 8.7 0.00 0.00 0.00 42 1012.8
20260504200601 69 270 4.3 8.7 0.00 0.00 0.00 42 1012.8
20260504195602 68 270 5.2 10.4 0.00 0.00 0.00 43 1012.9
20260504194641 67 270 4.3 10.4 0.00 0.00 0.00 43 1013.0
20260504193541 66 270 4.3 9.6 0.00 0.00 0.00 44 1013.0
20260504192541 66 293 5.2 10.4 0.00 0.00 0.00 46 1013.1
20260504191541 64 270 4.3 10.4 0.00 0.00 0.00 46 1012.8
20260504190541 64 270 6.1 11.3 0.00 0.00 0.00 47 1012.9
20260504185541 64 0 4.3 9.6 0.00 0.00 0.00 49 1013.1
20260504184541 64 270 5.2 9.6 0.00 0.00 0.00 47 1013.3
20260504183540 64 293 4.3 9.6 0.00 0.00 0.00 47 1013.4
20260504182540 63 270 4.3 8.7 0.00 0.00 0.00 51 1013.5
20260504181541 62 270 3.5 7.8 0.00 0.00 0.00 52 1013.3
20260504180541 61 270 3.5 7.8 0.00 0.00 0.00 52 1013.4
20260504175541 60 270 3.5 8.7 0.00 0.00 0.00 53 1013.4
20260504174540 59 315 3.5 7.8 0.00 0.00 0.00 54 1013.4
20260504173541 58 293 3.5 8.7 0.00 0.00 0.00 56 1013.5
20260504172541 58 293 2.6 7.0 0.00 0.00 0.00 55 1013.4
20260504171540 58 293 4.3 10.4 0.00 0.00 0.00 55 1013.4
20260504170541 58 338 3.5 8.7 0.00 0.00 0.00 57 1013.5
20260504150603 50 270 2.6 5.2 0.00 0.00 0.00 74 1014.0
20260504140543 44 293 0.9 2.6 0.00 0.00 0.00 86 1013.6
20260504130602 43 338 0.9 1.7 0.00 0.00 0.00 87 1014.1
20260504110541 43 315 1.7 2.6 0.00 0.00 0.00 86 1014.4
20260504100542 44 293 2.6 3.5 0.00 0.00 0.00 85 1014.3
20260504081542 44 293 1.7 1.7 0.00 0.00 0.00 85 1014.2
20260504080541 44 293 1.7 2.6 0.00 0.00 0.00 84 1014.0
20260504050543 50 270 1.7 2.6 0.00 0.00 0.00 79 1012.8
20260504045541 50 270 0.9 1.7 0.00 0.00 0.00 78 1012.8
20260504044542 50 270 1.7 2.6 0.00 0.00 0.00 78 1012.7
20260504043542 51 270 1.7 2.6 0.00 0.00 0.00 75 1012.7
20260504042542 51 0.0 1.7 0.00 0.00 0.00 74 1012.7
20260504041541 52 270 0.9 1.7 0.00 0.00 0.00 73 1012.6
20260504040541 52 270 0.9 2.6 0.00 0.00 0.00 71 1012.3
20260504035622 53 0.0 1.7 0.00 0.00 0.00 69 1012.2
20260504034603 53 0.0 0.9 0.00 0.00 0.00 70 1012.3
20260504033541 54 270 0.9 2.6 0.00 0.00 0.00 70 1012.1
20260504032541 55 270 1.7 3.5 0.00 0.00 0.00 66 1012.0
20260504031541 56 0.0 1.7 0.00 0.00 0.00 65 1012.2
20260504030602 57 270 0.9 2.6 0.00 0.00 0.00 65 1011.8
20260504025541 58 270 0.9 1.7 0.00 0.00 0.00 64 1011.8
20260504024601 59 270 0.9 1.7 0.00 0.00 0.00 63 1012.0
20260504023542 60 270 1.7 2.6 0.00 0.00 0.00 63 1012.1
20260504022541 60 270 1.7 2.6 0.00 0.00 0.00 62 1012.1
20260504021541 61 270 1.7 2.6 0.00 0.00 0.00 63 1012.2
20260504020601 62 270 1.7 2.6 0.00 0.00 0.00 60 1012.1
20260504015542 62 270 1.7 2.6 0.00 0.00 0.00 59 1012.1
20260504014542 63 270 1.7 2.6 0.00 0.00 0.00 56 1012.1
20260504013541 65 270 1.7 2.6 0.00 0.00 0.00 52 1012.1
20260504012541 67 0.0 1.7 0.00 0.00 0.00 50 1012.5
20260504011542 69 0.0 0.9 0.00 0.00 0.00 45 1012.8
20260504010541 70 0.0 1.7 0.00 0.00 0.00 43 1012.9
20260504005542 71 293 1.7 3.5 0.00 0.00 0.00 40 1012.9
20260504004542 72 270 1.7 3.5 0.00 0.00 0.00 37 1013.1
20260504003601 72 270 2.6 6.1 0.00 0.00 0.00 37 1013.2
20260504002541 73 270 1.7 5.2 0.00 0.00 0.00 34 1013.2
20260504001542 73 270 1.7 6.1 0.00 0.00 0.00 35 1013.4
20260504000541 74 338 3.5 7.0 0.00 0.00 0.00 33 1013.6
20260503235541 75 315 3.5 7.8 0.00 0.00 0.00 31 1013.6
20260503234603 75 338 3.5 7.0 0.00 0.00 0.00 30 1013.5
20260503233541 75 338 2.6 6.1 0.00 0.00 0.00 31 1013.7
20260503232541 75 270 3.5 7.0 0.00 0.00 0.00 32 1013.6
20260503231601 75 315 2.6 7.8 0.00 0.00 0.00 32 1013.7
20260503230602 76 315 3.5 9.6 0.00 0.00 0.00 30 1013.9
20260503225541 75 293 3.5 8.7 0.00 0.00 0.00 30 1014.0
20260503224541 75 0 3.5 8.7 0.00 0.00 0.00 30 1014.1
20260503223601 75 315 3.5 9.6 0.00 0.00 0.00 32 1014.3
20260503222541 75 315 4.3 8.7 0.00 0.00 0.00 30 1014.5
20260503221541 75 270 3.5 8.7 0.00 0.00 0.00 29 1014.4
20260503220541 75 270 3.5 7.8 0.00 0.00 0.00 31 1014.6
20260503215601 75 338 4.3 9.6 0.00 0.00 0.00 30 1014.8
20260503214541 75 293 3.5 7.8 0.00 0.00 0.00 31 1014.9
20260503213540 74 338 3.5 7.0 0.00 0.00 0.00 31 1015.2
20260503212542 74 270 3.5 7.8 0.00 0.00 0.00 30 1015.4
20260503211541 74 0 3.5 7.8 0.00 0.00 0.00 31 1015.5
20260503210540 73 0 4.3 9.6 0.00 0.00 0.00 31 1015.6
20260503205540 73 225 4.3 9.6 0.00 0.00 0.00 30 1015.8